Home > Weather > Khan Yunis > Past weeks

Flag for Palestinian Territories Weather for the Past 2 Weeks in Khan Yunis, Gaza Strip, Palestinian Territories

Now
63 °F

Sunny.


Feels Like: 63 °F
Forecast: 55 / 62 °F
Wind: 2 mph from Northeast

Location: El Arish

Current Time: Feb 9, 2016 at 12:40:16 PM

Latest Report: Feb 9, 2016 at 11:00 AM


Visibility: 10 mi

Pressure: 30.21 "Hg

Humidity: 52%

Dew point: 45 °F

Location of Khan YunisLocation

Historic Weather in Khan Yunis — Graph

°F

Khan Yunis Temperature Yesterday

Maximum temperature yesterday: 63 °F (at 2:00 PM)
Minimum temperature yesterday: 46 °F (at 11:00 PM)
Average temperature yesterday: 54 °F

High & Low Weather Summary for the Past Weeks

 TemperatureHumidityPressure
High79 °F (Feb 4, 3:00 PM)100% (Jan 25, 9:00 PM)30.45 "Hg (Jan 25, 9:00 PM)
Low36 °F (Jan 28, 6:00 AM)21% (Feb 4, 3:00 PM)29.95 "Hg (Feb 5, 6:00 AM)
Average53 °F84%30.20 "Hg
* Reported Jan 25 11:00 AM — Feb 9 11:00 AM, Khan Yunis, Weather by CustomWeather, © 2016

Note: Actual official high and low records may vary slightly from our data, if they occured in-between our weather recording intervals... More about our weather records

Advertising

Khan Yunis Weather History for the Previous 24 Hours

 ConditionsComfort  
Time TempWeatherWind HumidityBarometerVisibility
11:00 AM
Tue, Feb 9
63 °FSunny.2 mph52%30.21 "Hg10 mi
10:00 AM59 °FSunny.No wind59%30.24 "Hg10 mi
9:00 AM55 °FSunny.No wind72%30.24 "Hg10 mi
8:00 AM45 °FSunny.2 mph87%30.24 "Hg10 mi
7:00 AM37 °FSunny.2 mph100%30.24 "Hg10 mi
6:00 AM37 °FClear.3 mph100%30.21 "Hg10 mi
5:00 AM37 °FClear.3 mph100%30.21 "Hg10 mi
3:00 AM41 °FClear.2 mph100%30.21 "Hg10 mi
2:00 AM43 °FClear.2 mph100%30.24 "Hg10 mi
12:00 AM43 °FClear.5 mph100%30.24 "Hg10 mi
11:00 PM
Mon, Feb 8
46 °FClear.2 mph93%30.27 "Hg10 mi
10:00 PM50 °FClear.2 mph88%30.24 "Hg10 mi
9:00 PM52 °FPassing clouds.No wind77%30.24 "HgN/A
8:00 PM54 °FPassing clouds.No wind67%30.24 "HgN/A
7:00 PM55 °FPassing clouds.No wind63%30.24 "HgN/A
6:00 PM57 °FPassing clouds.No wind55%30.21 "HgN/A
5:00 PM61 °FScattered clouds.5 mph45%30.21 "HgN/A
4:00 PM63 °FScattered clouds.6 mph45%30.21 "HgN/A
3:00 PM63 °FScattered clouds.7 mph42%30.21 "HgN/A
2:00 PM63 °FPartly sunny.6 mph49%30.21 "HgN/A
1:00 PM61 °FPartly sunny.6 mph52%30.21 "HgN/A
12:00 PM59 °FBroken clouds.5 mph59%30.24 "HgN/A
Weather by CustomWeather, © 2016

See weather overviewHow to use our weather pages